Date,TemperatureHighF,TemperatureAvgF,TemperatureLowF,DewpointHighF,DewpointAvgF,DewpointLowF,HumidityHigh,HumidityAvg,HumidityLow,PressureMaxIn,PressureMinIn,WindSpeedMaxMPH,WindSpeedAvgMPH,GustSpeedMaxMPH,PrecipitationSumIn
2013-9-1,79.6,73.7,70.4,75.0,71.2,69.0,96,92,83,29.92,29.86,9,2,16,0.00
2013-9-2,80.6,73.0,70.5,76.0,71.4,70.0,97,94,83,29.90,29.76,7,1,14,0.02
2013-9-3,80.7,71.1,66.1,74.0,69.5,65.0,98,95,80,29.84,29.73,4,1,10,0.03
2013-9-4,75.5,68.3,62.8,65.0,62.2,60.0,97,81,67,29.96,29.83,8,2,19,0.03
2013-9-5,72.1,65.4,50.9,67.0,61.4,50.0,96,87,77,30.13,29.91,7,2,15,0.02
2013-9-6,68.2,57.6,46.5,56.0,49.4,45.0,97,77,47,30.25,30.14,6,1,10,0.03
2013-9-7,71.9,61.0,44.8,60.0,53.2,44.0,97,77,52,30.14,29.92,9,2,18,0.01
2013-9-8,77.5,68.2,58.8,66.0,58.6,45.0,89,72,50,30.09,29.78,13,3,17,0.01
2013-9-9,68.5,57.8,47.1,54.0,48.6,44.0,96,74,49,30.26,30.10,6,1,9,0.00
2013-9-10,74.5,65.6,52.7,68.0,61.7,51.0,97,87,75,30.21,30.11,8,2,13,0.00
2013-9-11,81.9,75.0,70.0,75.0,71.0,68.0,94,87,77,30.14,30.04,8,2,14,0.00
2013-9-12,78.2,72.7,69.1,72.0,69.6,68.0,96,90,80,30.06,29.75,9,2,14,0.00
2013-9-13,75.7,70.1,64.1,70.0,67.2,60.0,97,90,77,29.75,29.60,9,2,13,0.32
2013-9-14,68.8,63.4,57.9,60.0,57.1,53.0,91,80,68,30.07,29.75,9,2,13,0.32
2013-9-15,66.3,58.3,49.9,56.0,51.9,49.0,97,81,60,30.19,30.08,7,1,12,0.00
2013-9-16,66.2,60.8,51.7,61.0,55.9,47.0,97,84,65,30.20,30.04,11,2,19,0.02
2013-9-17,58.8,52.2,38.7,47.0,42.6,37.0,95,71,54,30.40,30.20,13,3,18,0.02
2013-9-18,67.8,53.2,38.1,54.0,44.4,37.0,97,76,40,30.35,30.18,6,1,9,0.00
2013-9-19,70.4,62.5,53.0,60.0,56.4,51.0,95,81,62,30.19,30.09,9,3,14,0.01
2013-9-20,75.2,61.4,49.2,64.0,55.8,48.0,97,84,52,30.12,30.05,7,1,9,0.02
2013-9-21,76.4,63.6,47.3,67.0,60.1,46.0,98,89,72,30.08,29.80,6,1,12,0.01
2013-9-22,70.9,66.6,57.6,67.0,61.5,50.0,95,84,68,29.83,29.69,9,3,15,0.10
2013-9-23,63.7,54.9,45.8,52.0,46.2,43.0,95,73,54,30.02,29.82,15,3,16,0.10
2013-9-24,63.8,53.6,45.4,53.0,46.0,42.0,94,76,60,30.02,29.84,10,3,13,0.00
2013-9-25,66.4,54.0,39.3,53.0,47.4,38.0,97,80,58,29.99,29.90,8,1,11,0.00
2013-9-26,62.1,55.5,47.7,52.0,49.8,46.0,96,82,65,30.12,29.98,9,2,12,0.00
2013-9-27,63.1,57.7,46.5,56.0,52.8,45.0,96,84,73,30.27,30.11,9,2,16,0.00
2013-9-28,73.4,55.7,43.1,59.0,49.9,42.0,97,83,57,30.32,30.25,6,1,9,0.00
2013-9-29,67.2,55.0,40.7,58.0,50.1,40.0,97,85,56,30.27,30.11,4,1,8,0.01
2013-9-30,69.2,59.9,45.1,58.0,54.9,44.0,96,85,65,30.10,29.98,9,2,11,0.01